Time,TemperatureF,DewpointF,PressureIn,WindDirection,WindDirectionDegrees,WindSpeedMPH,WindSpeedGustMPH,Humidity,HourlyPrecipIn,Conditions,Clouds,dailyrainin,SoftwareType,DateUTC
2013-01-29 00:02:00,43.3,32.8,27.20,SSW,207,6.3,7.2,66,0.00,,---,0.00,VWS V13.01,2013-01-29 07:02:00,
2013-01-29 00:07:00,43.0,32.8,27.23,SSW,207,5.8,10.5,67,0.00,,---,0.00,VWS V13.01,2013-01-29 07:07:00,
2013-01-29 00:13:00,42.6,33.2,27.23,South,171,5.8,8.7,69,0.00,,---,0.00,VWS V13.01,2013-01-29 07:13:00,
2013-01-29 00:18:00,42.4,33.4,27.23,SSE,154,4.9,5.8,70,0.00,,---,0.00,VWS V13.01,2013-01-29 07:18:00,
2013-01-29 00:23:00,42.3,33.5,27.23,South,187,4.9,8.7,71,0.00,,---,0.00,VWS V13.01,2013-01-29 07:23:00,
2013-01-29 00:28:00,42.1,33.4,27.23,SSW,192,7.6,11.0,71,0.00,,---,0.00,VWS V13.01,2013-01-29 07:28:00,
2013-01-29 00:33:00,42.1,33.4,27.23,SSW,198,2.7,8.3,71,0.00,,---,0.00,VWS V13.01,2013-01-29 07:33:00,
2013-01-29 00:38:00,42.1,33.7,27.23,South,184,7.6,8.3,72,0.00,,---,0.00,VWS V13.01,2013-01-29 07:38:00,
2013-01-29 00:44:00,41.9,33.5,27.23,SSW,205,7.6,8.3,72,0.00,,---,0.00,VWS V13.01,2013-01-29 07:44:00,
2013-01-29 00:49:00,41.9,33.9,27.23,SSW,205,8.3,8.3,73,0.00,,---,0.00,VWS V13.01,2013-01-29 07:49:00,
2013-01-29 00:54:00,41.9,33.9,27.23,SW,218,6.3,8.1,73,0.00,,---,0.00,VWS V13.01,2013-01-29 07:54:00,
2013-01-29 00:59:00,41.9,33.9,27.23,SSW,196,8.1,8.3,73,0.00,,---,0.00,VWS V13.01,2013-01-29 07:59:00,
2013-01-29 01:04:00,41.9,33.9,27.23,SSW,201,3.6,6.3,73,0.00,,---,0.00,VWS V13.01,2013-01-29 08:04:00,
2013-01-29 01:09:00,41.7,34.1,27.23,SW,218,3.6,6.3,74,0.00,,---,0.00,VWS V13.01,2013-01-29 08:09:00,
2013-01-29 01:15:00,41.7,34.1,27.23,SSW,203,5.4,5.8,74,0.00,,---,0.00,VWS V13.01,2013-01-29 08:15:00,
2013-01-29 01:20:00,41.7,34.1,27.23,SSW,206,5.8,8.1,74,0.00,,---,0.00,VWS V13.01,2013-01-29 08:20:00,
2013-01-29 01:25:00,41.7,34.1,27.23,SSW,207,4.9,6.3,74,0.00,,---,0.00,VWS V13.01,2013-01-29 08:25:00,
2013-01-29 01:30:00,41.7,34.1,27.23,SW,217,3.1,5.8,74,0.00,,---,0.00,VWS V13.01,2013-01-29 08:30:00,
2013-01-29 01:35:00,41.9,34.2,27.23,SW,215,3.1,5.4,74,0.00,,---,0.00,VWS V13.01,2013-01-29 08:35:00,
2013-01-29 01:40:00,41.9,33.9,27.23,SSW,206,3.1,6.3,73,0.00,,---,0.00,VWS V13.01,2013-01-29 08:40:00,
2013-01-29 01:46:00,41.9,33.9,27.23,SW,222,5.4,8.1,73,0.00,,---,0.00,VWS V13.01,2013-01-29 08:46:00,
2013-01-29 01:51:00,41.9,33.5,27.23,SSW,210,5.4,8.7,72,0.00,,---,0.00,VWS V13.01,2013-01-29 08:51:00,
2013-01-29 01:56:00,41.7,33.4,27.23,WSW,255,4.0,10.1,72,0.00,,---,0.00,VWS V13.01,2013-01-29 08:56:00,
2013-01-29 02:01:00,41.7,33.4,27.23,SSW,199,5.4,7.2,72,0.00,,---,0.00,VWS V13.01,2013-01-29 09:01:00,
2013-01-29 02:07:00,41.7,33.4,27.23,SW,225,6.3,6.3,72,0.00,,---,0.00,VWS V13.01,2013-01-29 09:07:00,
2013-01-29 02:12:00,41.5,33.2,27.23,South,181,6.3,8.3,72,0.00,,---,0.00,VWS V13.01,2013-01-29 09:12:00,
2013-01-29 02:17:00,41.5,33.2,27.23,SW,214,2.2,7.6,72,0.00,,---,0.00,VWS V13.01,2013-01-29 09:17:00,
2013-01-29 02:22:00,41.5,33.5,27.20,SW,216,3.1,6.3,73,0.00,,---,0.00,VWS V13.01,2013-01-29 09:22:00,
2013-01-29 02:27:00,41.5,33.5,27.20,South,183,7.2,8.1,73,0.00,,---,0.00,VWS V13.01,2013-01-29 09:27:00,
2013-01-29 02:32:00,41.5,33.5,27.20,SW,226,4.0,6.3,73,0.00,,---,0.00,VWS V13.01,2013-01-29 09:32:00,
2013-01-29 02:38:00,41.7,33.7,27.23,SW,219,6.3,6.3,73,0.00,,---,0.00,VWS V13.01,2013-01-29 09:38:00,
2013-01-29 02:43:00,41.7,33.7,27.23,SSW,210,4.9,6.3,73,0.00,,---,0.00,VWS V13.01,2013-01-29 09:43:00,
2013-01-29 02:48:00,41.5,33.5,27.23,SSW,207,5.4,5.4,73,0.00,,---,0.00,VWS V13.01,2013-01-29 09:48:00,
2013-01-29 02:54:00,41.7,33.7,27.23,WSW,237,3.6,5.8,73,0.00,,---,0.00,VWS V13.01,2013-01-29 09:54:00,
2013-01-29 02:59:00,41.7,33.7,27.23,SW,214,3.6,5.4,73,0.00,,---,0.00,VWS V13.01,2013-01-29 09:59:00,
2013-01-29 03:04:00,41.7,33.4,27.23,SSW,213,4.0,4.0,72,0.00,,---,0.00,VWS V13.01,2013-01-29 10:04:00,
2013-01-29 03:09:00,41.5,33.2,27.23,SW,222,5.8,5.8,72,0.00,,---,0.00,VWS V13.01,2013-01-29 10:09:00,
2013-01-29 03:15:00,41.5,33.5,27.23,SW,221,3.1,3.1,73,0.00,,---,0.00,VWS V13.01,2013-01-29 10:15:00,
2013-01-29 03:20:00,41.5,33.5,27.23,SW,216,3.6,5.8,73,0.00,,---,0.00,VWS V13.01,2013-01-29 10:20:00,
2013-01-29 03:25:00,41.5,33.5,27.23,SSW,213,3.1,5.8,73,0.00,,---,0.00,VWS V13.01,2013-01-29 10:25:00,
2013-01-29 03:31:00,41.5,33.2,27.23,SW,216,3.1,5.4,72,0.00,,---,0.00,VWS V13.01,2013-01-29 10:31:00,
2013-01-29 03:36:00,41.5,33.5,27.23,SSW,210,5.4,5.8,73,0.00,,---,0.00,VWS V13.01,2013-01-29 10:36:00,
2013-01-29 03:41:00,41.4,33.4,27.23,SW,232,0.0,5.4,73,0.00,,---,0.00,VWS V13.01,2013-01-29 10:41:00,
2013-01-29 03:47:00,41.4,33.4,27.23,South,183,3.6,8.1,73,0.00,,---,0.00,VWS V13.01,2013-01-29 10:47:00,
2013-01-29 03:52:00,41.4,33.4,27.23,SSW,208,5.4,5.4,73,0.00,,---,0.00,VWS V13.01,2013-01-29 10:52:00,
2013-01-29 03:57:00,41.4,33.4,27.23,SW,234,3.6,6.3,73,0.00,,---,0.00,VWS V13.01,2013-01-29 10:57:00,
2013-01-29 04:02:00,41.4,33.4,27.23,WSW,254,5.8,5.8,73,0.00,,---,0.00,VWS V13.01,2013-01-29 11:02:00,
2013-01-29 04:07:00,41.4,33.4,27.23,SSW,208,4.0,6.3,73,0.00,,---,0.00,VWS V13.01,2013-01-29 11:07:00,
2013-01-29 04:12:00,41.4,33.4,27.23,SSW,211,4.9,7.6,73,0.00,,---,0.00,VWS V13.01,2013-01-29 11:12:00,
2013-01-29 04:18:00,41.4,33.4,27.23,South,185,5.4,7.6,73,0.00,,---,0.00,VWS V13.01,2013-01-29 11:18:00,
2013-01-29 04:23:00,41.2,33.5,27.23,SW,222,3.1,4.5,74,0.00,,---,0.00,VWS V13.01,2013-01-29 11:23:00,
2013-01-29 04:28:00,41.2,33.9,27.23,SSW,204,2.7,4.0,75,0.00,,---,0.00,VWS V13.01,2013-01-29 11:28:00,
2013-01-29 04:33:00,41.0,33.7,27.23,WSW,253,4.0,4.0,75,0.00,,---,0.00,VWS V13.01,2013-01-29 11:33:00,
2013-01-29 04:39:00,41.2,33.9,27.23,West,260,5.4,7.6,75,0.00,,---,0.00,VWS V13.01,2013-01-29 11:39:00,
2013-01-29 04:44:00,41.0,33.0,27.23,WSW,241,3.6,8.3,73,0.00,,---,0.00,VWS V13.01,2013-01-29 11:44:00,
2013-01-29 04:49:00,41.0,32.3,27.23,WSW,240,5.4,6.3,71,0.00,,---,0.00,VWS V13.01,2013-01-29 11:49:00,
2013-01-29 04:54:00,40.8,32.2,27.23,WSW,248,5.8,8.3,71,0.00,,---,0.00,VWS V13.01,2013-01-29 11:54:00,
2013-01-29 04:59:00,40.6,31.6,27.23,SW,228,5.8,8.1,70,0.00,,---,0.00,VWS V13.01,2013-01-29 11:59:00,
2013-01-29 05:05:00,40.5,31.1,27.23,WSW,243,5.4,8.1,69,0.00,,---,0.00,VWS V13.01,2013-01-29 12:05:00,
2013-01-29 05:10:00,40.3,30.9,27.23,WSW,254,5.8,5.8,69,0.00,,---,0.00,VWS V13.01,2013-01-29 12:10:00,
2013-01-29 05:15:00,40.3,30.9,27.23,West,260,4.0,6.3,69,0.00,,---,0.00,VWS V13.01,2013-01-29 12:15:00,
2013-01-29 05:21:00,39.9,30.6,27.23,West,265,4.9,4.9,69,0.00,,---,0.00,VWS V13.01,2013-01-29 12:21:00,
2013-01-29 05:26:00,39.9,30.6,27.23,WSW,256,3.6,5.8,69,0.00,,---,0.00,VWS V13.01,2013-01-29 12:26:00,
2013-01-29 05:31:00,39.9,30.6,27.23,WSW,256,0.0,0.0,69,0.00,,---,0.00,VWS V13.01,2013-01-29 12:31:00,
2013-01-29 05:36:00,39.7,30.4,27.23,West,277,0.0,3.1,69,0.00,,---,0.00,VWS V13.01,2013-01-29 12:36:00,
2013-01-29 05:41:00,39.6,29.9,27.23,West,264,4.0,6.3,68,0.00,,---,0.00,VWS V13.01,2013-01-29 12:41:00,
2013-01-29 05:46:00,39.6,29.5,27.23,WSW,241,6.3,6.3,67,0.00,,---,0.00,VWS V13.01,2013-01-29 12:46:00,
2013-01-29 05:51:00,39.4,29.4,27.23,West,263,5.4,5.8,67,0.00,,---,0.00,VWS V13.01,2013-01-29 12:51:00,
2013-01-29 05:56:00,39.4,29.0,27.23,WSW,248,3.1,5.4,66,0.00,,---,0.00,VWS V13.01,2013-01-29 12:56:00,
2013-01-29 06:02:00,39.2,28.4,27.23,WSW,245,5.8,8.3,65,0.00,,---,0.00,VWS V13.01,2013-01-29 13:02:00,
2013-01-29 06:07:00,39.2,28.4,27.23,West,278,3.6,5.8,65,0.00,,---,0.00,VWS V13.01,2013-01-29 13:07:00,
2013-01-29 06:12:00,39.2,28.4,27.23,WSW,246,6.3,7.2,65,0.00,,---,0.00,VWS V13.01,2013-01-29 13:12:00,
2013-01-29 06:17:00,39.0,28.3,27.23,WSW,248,6.3,7.6,65,0.00,,---,0.00,VWS V13.01,2013-01-29 13:17:00,
2013-01-29 06:22:00,39.0,28.3,27.26,WSW,246,5.8,8.7,65,0.00,,---,0.00,VWS V13.01,2013-01-29 13:22:00,
2013-01-29 06:27:00,38.8,28.1,27.26,WNW,290,4.0,6.3,65,0.00,,---,0.00,VWS V13.01,2013-01-29 13:27:00,
2013-01-29 06:33:00,38.8,28.1,27.26,West,280,2.2,4.0,65,0.00,,---,0.00,VWS V13.01,2013-01-29 13:33:00,
2013-01-29 06:38:00,38.7,27.9,27.26,WNW,294,0.0,4.0,65,0.00,,---,0.00,VWS V13.01,2013-01-29 13:38:00,
2013-01-29 06:43:00,38.5,28.1,27.26,WNW,298,0.0,0.0,66,0.00,,---,0.00,VWS V13.01,2013-01-29 13:43:00,
2013-01-29 06:48:00,38.5,28.1,27.26,West,262,3.6,3.6,66,0.00,,---,0.00,VWS V13.01,2013-01-29 13:48:00,
2013-01-29 06:53:00,38.3,28.0,27.26,WNW,287,0.0,0.0,66,0.00,,---,0.00,VWS V13.01,2013-01-29 13:53:00,
2013-01-29 06:58:00,38.1,28.1,27.26,WNW,291,0.0,0.0,67,0.00,,---,0.00,VWS V13.01,2013-01-29 13:58:00,
2013-01-29 07:04:00,38.1,28.1,27.26,WNW,291,0.0,0.0,67,0.00,,---,0.00,VWS V13.01,2013-01-29 14:04:00,
2013-01-29 07:09:00,37.9,28.0,27.26,WNW,287,2.7,4.9,67,0.00,,---,0.00,VWS V13.01,2013-01-29 14:09:00,
2013-01-29 07:14:00,37.9,27.6,27.26,WNW,290,3.1,7.6,66,0.00,,---,0.00,VWS V13.01,2013-01-29 14:14:00,
2013-01-29 07:19:00,37.9,27.6,27.26,West,277,3.6,3.6,66,0.00,,---,0.00,VWS V13.01,2013-01-29 14:19:00,
2013-01-29 07:25:00,37.9,27.6,27.26,WNW,291,0.0,0.0,66,0.00,,---,0.00,VWS V13.01,2013-01-29 14:25:00,
2013-01-29 07:30:00,37.9,28.0,27.26,WNW,287,0.0,0.0,67,0.00,,---,0.00,VWS V13.01,2013-01-29 14:30:00,
2013-01-29 07:35:00,37.9,28.0,27.26,WNW,285,0.0,0.0,67,0.00,,---,0.00,VWS V13.01,2013-01-29 14:35:00,
2013-01-29 07:40:00,37.9,28.3,27.29,WNW,282,0.0,2.2,68,0.00,,---,0.00,VWS V13.01,2013-01-29 14:40:00,
2013-01-29 07:45:00,37.9,28.7,27.29,WNW,282,0.0,0.0,69,0.00,,---,0.00,VWS V13.01,2013-01-29 14:45:00,
2013-01-29 07:51:00,37.9,28.7,27.29,WNW,282,0.0,0.0,69,0.00,,---,0.00,VWS V13.01,2013-01-29 14:51:00,
2013-01-29 07:56:00,38.1,29.2,27.29,WNW,282,0.0,0.0,70,0.00,,---,0.00,VWS V13.01,2013-01-29 14:56:00,
2013-01-29 08:01:00,38.3,29.4,27.29,WNW,282,0.0,0.0,70,0.00,,---,0.00,VWS V13.01,2013-01-29 15:01:00,
2013-01-29 08:06:00,38.5,29.6,27.29,WNW,282,0.0,0.0,70,0.00,,---,0.00,VWS V13.01,2013-01-29 15:06:00,
2013-01-29 08:11:00,38.5,29.9,27.29,WNW,282,0.0,0.0,71,0.00,,---,0.00,VWS V13.01,2013-01-29 15:11:00,
2013-01-29 08:16:00,38.8,29.9,27.29,West,275,4.5,4.5,70,0.00,,---,0.00,VWS V13.01,2013-01-29 15:16:00,
2013-01-29 08:22:00,39.2,29.5,27.29,WSW,242,3.6,3.6,68,0.00,,---,0.00,VWS V13.01,2013-01-29 15:22:00,
2013-01-29 08:27:00,39.7,29.0,27.29,WSW,251,0.0,5.4,65,0.00,,---,0.00,VWS V13.01,2013-01-29 15:27:00,
2013-01-29 08:32:00,39.9,28.8,27.29,SSW,201,0.0,4.9,64,0.00,,---,0.00,VWS V13.01,2013-01-29 15:32:00,
2013-01-29 08:37:00,40.3,29.1,27.29,SW,235,4.5,4.9,64,0.00,,---,0.00,VWS V13.01,2013-01-29 15:37:00,
2013-01-29 08:42:00,40.5,28.9,27.29,South,191,3.6,6.7,63,0.00,,---,0.00,VWS V13.01,2013-01-29 15:42:00,
2013-01-29 08:47:00,40.6,28.6,27.29,SSW,197,0.0,5.4,62,0.00,,---,0.00,VWS V13.01,2013-01-29 15:47:00,
2013-01-29 08:53:00,40.8,28.0,27.29,WSW,252,2.7,6.3,60,0.00,,---,0.00,VWS V13.01,2013-01-29 15:53:00,
2013-01-29 08:58:00,41.2,28.4,27.29,WSW,248,5.4,5.8,60,0.00,,---,0.00,VWS V13.01,2013-01-29 15:58:00,
2013-01-29 09:03:00,41.4,27.7,27.29,SW,223,2.7,8.1,58,0.00,,---,0.00,VWS V13.01,2013-01-29 16:03:00,
2013-01-29 09:08:00,41.7,28.5,27.29,SSW,203,6.3,6.3,59,0.00,,---,0.00,VWS V13.01,2013-01-29 16:08:00,
2013-01-29 09:13:00,41.9,27.8,27.29,SSW,204,5.8,8.1,57,0.00,,---,0.00,VWS V13.01,2013-01-29 16:13:00,
2013-01-29 09:18:00,42.1,27.5,27.29,SSW,199,3.1,6.3,56,0.00,,---,0.00,VWS V13.01,2013-01-29 16:18:00,
2013-01-29 09:24:00,42.4,27.9,27.29,WSW,257,3.6,5.8,56,0.00,,---,0.00,VWS V13.01,2013-01-29 16:24:00,
2013-01-29 09:29:00,42.4,27.4,27.29,WSW,245,8.3,10.1,55,0.00,,---,0.00,VWS V13.01,2013-01-29 16:29:00,
2013-01-29 09:34:00,43.0,27.5,27.29,South,174,6.3,6.3,54,0.00,,---,0.00,VWS V13.01,2013-01-29 16:34:00,
2013-01-29 09:40:00,43.2,27.2,27.29,SW,223,7.2,8.7,53,0.00,,---,0.00,VWS V13.01,2013-01-29 16:40:00,
2013-01-29 09:45:00,43.5,27.1,27.29,West,261,7.6,10.1,52,0.00,,---,0.00,VWS V13.01,2013-01-29 16:45:00,
2013-01-29 09:50:00,43.7,26.8,27.29,SW,218,4.9,8.7,51,0.00,,---,0.00,VWS V13.01,2013-01-29 16:50:00,
2013-01-29 09:56:00,44.1,27.1,27.29,SW,225,7.6,7.6,51,0.00,,---,0.00,VWS V13.01,2013-01-29 16:56:00,
2013-01-29 10:01:00,44.2,26.8,27.29,SW,236,10.5,11.0,50,0.00,,---,0.00,VWS V13.01,2013-01-29 17:01:00,
2013-01-29 10:06:00,44.4,26.5,27.32,West,260,5.4,8.7,49,0.00,,---,0.00,VWS V13.01,2013-01-29 17:06:00,
2013-01-29 10:12:00,45.0,27.0,27.32,SW,228,3.6,7.6,49,0.00,,---,0.00,VWS V13.01,2013-01-29 17:12:00,
2013-01-29 10:17:00,45.3,27.3,27.32,WSW,253,8.1,8.3,49,0.00,,---,0.00,VWS V13.01,2013-01-29 17:17:00,
2013-01-29 10:22:00,45.1,26.6,27.32,West,263,11.4,11.4,48,0.00,,---,0.00,VWS V13.01,2013-01-29 17:22:00,
2013-01-29 10:28:00,45.5,27.0,27.32,SW,229,6.3,10.1,48,0.00,,---,0.00,VWS V13.01,2013-01-29 17:28:00,
2013-01-29 10:33:00,45.9,26.8,27.32,SW,227,7.2,9.6,47,0.00,,---,0.00,VWS V13.01,2013-01-29 17:33:00,
2013-01-29 10:38:00,45.9,26.8,27.32,West,262,6.3,8.7,47,0.00,,---,0.00,VWS V13.01,2013-01-29 17:38:00,
2013-01-29 10:44:00,46.0,27.0,27.32,WSW,252,7.6,8.1,47,0.00,,---,0.00,VWS V13.01,2013-01-29 17:44:00,
2013-01-29 10:49:00,46.4,25.7,27.32,WNW,293,8.3,9.2,44,0.00,,---,0.00,VWS V13.01,2013-01-29 17:49:00,
2013-01-29 10:54:00,46.9,26.2,27.32,SW,231,5.4,5.8,44,0.00,,---,0.00,VWS V13.01,2013-01-29 17:54:00,
2013-01-29 11:00:00,47.3,26.0,27.32,WSW,251,5.8,11.0,43,0.00,,---,0.00,VWS V13.01,2013-01-29 18:00:00,
2013-01-29 11:05:00,47.7,25.7,27.32,WSW,245,8.1,8.3,42,0.00,,---,0.00,VWS V13.01,2013-01-29 18:05:00,
2013-01-29 11:10:00,47.8,25.3,27.32,NNW,342,6.3,16.8,41,0.00,,---,0.00,VWS V13.01,2013-01-29 18:10:00,
2013-01-29 11:15:00,47.8,25.9,27.32,West,259,4.9,8.1,42,0.00,,---,0.00,VWS V13.01,2013-01-29 18:15:00,
2013-01-29 11:20:00,48.2,24.4,27.32,WSW,237,6.7,12.8,39,0.00,,---,0.00,VWS V13.01,2013-01-29 18:20:00,
2013-01-29 11:26:00,48.6,24.7,27.32,SSW,200,6.3,11.0,39,0.00,,---,0.00,VWS V13.01,2013-01-29 18:26:00,
2013-01-29 11:31:00,48.9,24.5,27.32,West,269,5.8,16.3,38,0.00,,---,0.00,VWS V13.01,2013-01-29 18:31:00,
2013-01-29 11:36:00,48.9,24.5,27.32,WSW,240,6.7,7.6,38,0.00,,---,0.00,VWS V13.01,2013-01-29 18:36:00,
2013-01-29 11:42:00,49.1,24.0,27.32,SW,221,8.3,9.6,37,0.00,,---,0.00,VWS V13.01,2013-01-29 18:42:00,
2013-01-29 11:47:00,49.5,24.3,27.32,West,262,8.7,10.1,37,0.00,,---,0.00,VWS V13.01,2013-01-29 18:47:00,
2013-01-29 11:52:00,49.3,24.1,27.29,West,264,3.6,6.3,37,0.00,,---,0.00,VWS V13.01,2013-01-29 18:52:00,
2013-01-29 11:57:00,49.8,25.2,27.29,West,259,8.1,8.7,38,0.00,,---,0.00,VWS V13.01,2013-01-29 18:57:00,
2013-01-29 12:02:00,49.5,24.3,27.29,West,274,5.4,10.5,37,0.00,,---,0.00,VWS V13.01,2013-01-29 19:02:00,
2013-01-29 12:07:00,49.5,24.3,27.29,SW,234,8.7,12.3,37,0.00,,---,0.00,VWS V13.01,2013-01-29 19:07:00,
2013-01-29 12:13:00,49.3,24.1,27.29,WSW,245,6.3,10.1,37,0.00,,---,0.00,VWS V13.01,2013-01-29 19:13:00,
2013-01-29 12:18:00,49.6,24.5,27.29,WSW,251,5.8,8.3,37,0.00,,---,0.00,VWS V13.01,2013-01-29 19:18:00,
2013-01-29 12:23:00,49.6,24.5,27.29,West,264,5.4,10.5,37,0.00,,---,0.00,VWS V13.01,2013-01-29 19:23:00,
2013-01-29 12:28:00,49.8,24.0,27.29,WNW,285,8.7,12.3,36,0.00,,---,0.00,VWS V13.01,2013-01-29 19:28:00,
2013-01-29 12:34:00,50.2,24.3,27.29,WNW,282,2.7,8.7,36,0.00,,---,0.00,VWS V13.01,2013-01-29 19:34:00,
2013-01-29 12:39:00,50.0,24.1,27.29,WNW,296,13.2,15.0,36,0.00,,---,0.00,VWS V13.01,2013-01-29 19:39:00,
2013-01-29 12:44:00,50.2,24.3,27.29,West,263,5.4,10.5,36,0.00,,---,0.00,VWS V13.01,2013-01-29 19:44:00,
2013-01-29 12:49:00,50.4,23.1,27.29,WNW,299,8.1,14.5,34,0.00,,---,0.00,VWS V13.01,2013-01-29 19:49:00,
2013-01-29 12:54:00,50.0,21.3,27.29,West,263,8.3,13.2,32,0.00,,---,0.00,VWS V13.01,2013-01-29 19:54:00,
2013-01-29 12:57:00,50.5,21.8,27.29,WSW,255,8.3,13.2,32,0.00,,---,0.00,VWS V13.01,2013-01-29 19:57:00,
2013-01-29 13:03:00,50.5,21.8,27.29,WSW,240,7.6,12.3,32,0.00,,---,0.00,VWS V13.01,2013-01-29 20:03:00,
2013-01-29 13:08:00,50.5,21.0,27.29,WNW,290,8.7,11.0,31,0.00,,---,0.00,VWS V13.01,2013-01-29 20:08:00,
2013-01-29 13:13:00,50.7,20.4,27.29,WNW,298,8.7,13.2,30,0.00,,---,0.00,VWS V13.01,2013-01-29 20:13:00,
2013-01-29 13:18:00,50.7,21.2,27.29,NW,307,8.3,13.2,31,0.00,,---,0.00,VWS V13.01,2013-01-29 20:18:00,
2013-01-29 13:23:00,50.5,20.3,27.26,West,277,11.0,11.0,30,0.00,,---,0.00,VWS V13.01,2013-01-29 20:23:00,
2013-01-29 13:28:00,50.5,21.0,27.26,NW,321,7.6,10.1,31,0.00,,---,0.00,VWS V13.01,2013-01-29 20:28:00,
2013-01-29 13:34:00,50.5,21.0,27.26,NW,316,10.1,10.5,31,0.00,,---,0.00,VWS V13.01,2013-01-29 20:34:00,
2013-01-29 13:39:00,50.9,22.1,27.26,West,274,11.0,11.0,32,0.00,,---,0.00,VWS V13.01,2013-01-29 20:39:00,
2013-01-29 13:44:00,51.1,22.3,27.26,West,260,6.3,11.9,32,0.00,,---,0.00,VWS V13.01,2013-01-29 20:44:00,
2013-01-29 13:50:00,51.1,20.8,27.26,West,278,8.3,15.0,30,0.00,,---,0.00,VWS V13.01,2013-01-29 20:50:00,
2013-01-29 13:55:00,50.9,20.6,27.26,SW,233,10.5,10.5,30,0.00,,---,0.00,VWS V13.01,2013-01-29 20:55:00,
2013-01-29 14:00:00,51.4,20.3,27.26,SW,230,14.1,15.0,29,0.00,,---,0.00,VWS V13.01,2013-01-29 21:00:00,
2013-01-29 14:06:00,51.1,19.1,27.26,WNW,284,8.1,15.0,28,0.00,,---,0.00,VWS V13.01,2013-01-29 21:06:00,
2013-01-29 14:11:00,51.3,19.3,27.26,WSW,247,12.8,15.0,28,0.00,,---,0.00,VWS V13.01,2013-01-29 21:11:00,
2013-01-29 14:16:00,51.6,20.4,27.26,WNW,297,8.3,8.7,29,0.00,,---,0.00,VWS V13.01,2013-01-29 21:16:00,
2013-01-29 14:22:00,51.6,19.6,27.26,West,274,9.2,15.0,28,0.00,,---,0.00,VWS V13.01,2013-01-29 21:22:00,
2013-01-29 14:27:00,51.6,19.6,27.26,West,266,5.8,11.0,28,0.00,,---,0.00,VWS V13.01,2013-01-29 21:27:00,
2013-01-29 14:32:00,51.1,19.1,27.26,West,268,13.2,13.2,28,0.00,,---,0.00,VWS V13.01,2013-01-29 21:32:00,
2013-01-29 14:37:00,51.4,20.3,27.26,West,275,5.4,13.2,29,0.00,,---,0.00,VWS V13.01,2013-01-29 21:37:00,
2013-01-29 14:42:00,51.4,20.3,27.26,West,281,8.7,15.4,29,0.00,,---,0.00,VWS V13.01,2013-01-29 21:42:00,
2013-01-29 14:47:00,51.6,21.2,27.26,West,263,12.8,13.2,30,0.00,,---,0.00,VWS V13.01,2013-01-29 21:47:00,
2013-01-29 14:53:00,51.8,20.6,27.26,WSW,253,13.2,13.2,29,0.00,,---,0.00,VWS V13.01,2013-01-29 21:53:00,
2013-01-29 14:58:00,51.8,20.6,27.26,WNW,286,6.7,11.0,29,0.00,,---,0.00,VWS V13.01,2013-01-29 21:58:00,
2013-01-29 15:03:00,51.8,20.6,27.26,WNW,282,6.3,13.2,29,0.00,,---,0.00,VWS V13.01,2013-01-29 22:03:00,
2013-01-29 15:09:00,51.8,20.6,27.23,WSW,250,13.2,13.2,29,0.00,,---,0.00,VWS V13.01,2013-01-29 22:09:00,
2013-01-29 15:14:00,51.8,20.6,27.23,WSW,257,6.3,13.2,29,0.00,,---,0.00,VWS V13.01,2013-01-29 22:14:00,
2013-01-29 15:19:00,51.8,20.6,27.23,WSW,238,13.2,13.2,29,0.00,,---,0.00,VWS V13.01,2013-01-29 22:19:00,
2013-01-29 15:25:00,51.8,20.6,27.26,SW,221,6.3,8.3,29,0.00,,---,0.00,VWS V13.01,2013-01-29 22:25:00,
2013-01-29 15:30:00,51.6,20.4,27.26,WSW,242,7.6,16.8,29,0.00,,---,0.00,VWS V13.01,2013-01-29 22:30:00,
2013-01-29 15:35:00,51.6,20.4,27.26,SW,218,7.6,17.4,29,0.00,,---,0.00,VWS V13.01,2013-01-29 22:35:00,
2013-01-29 15:40:00,51.8,21.4,27.26,WSW,240,11.0,11.0,30,0.00,,---,0.00,VWS V13.01,2013-01-29 22:40:00,
2013-01-29 15:45:00,51.4,20.3,27.26,West,263,12.3,14.1,29,0.00,,---,0.00,VWS V13.01,2013-01-29 22:45:00,
2013-01-29 15:50:00,51.1,20.8,27.26,West,268,10.1,11.0,30,0.00,,---,0.00,VWS V13.01,2013-01-29 22:50:00,
2013-01-29 15:56:00,51.3,20.9,27.26,WSW,241,10.5,12.8,30,0.00,,---,0.00,VWS V13.01,2013-01-29 22:56:00,
2013-01-29 16:01:00,51.1,20.8,27.26,WNW,282,8.1,15.0,30,0.00,,---,0.00,VWS V13.01,2013-01-29 23:01:00,
2013-01-29 16:06:00,51.1,20.8,27.26,SW,218,9.2,9.2,30,0.00,,---,0.00,VWS V13.01,2013-01-29 23:06:00,
2013-01-29 16:12:00,51.1,20.8,27.26,WSW,253,10.1,17.4,30,0.00,,---,0.00,VWS V13.01,2013-01-29 23:12:00,
2013-01-29 16:17:00,51.1,20.8,27.26,WNW,289,8.1,12.8,30,0.00,,---,0.00,VWS V13.01,2013-01-29 23:17:00,
2013-01-29 16:22:00,50.9,20.6,27.26,WNW,287,10.5,15.0,30,0.00,,---,0.00,VWS V13.01,2013-01-29 23:22:00,
2013-01-29 16:27:00,50.9,20.6,27.26,WNW,283,8.1,10.1,30,0.00,,---,0.00,VWS V13.01,2013-01-29 23:27:00,
2013-01-29 16:32:00,50.9,20.6,27.26,West,272,13.2,15.9,30,0.00,,---,0.00,VWS V13.01,2013-01-29 23:32:00,
2013-01-29 16:37:00,50.7,20.4,27.26,West,259,12.8,12.8,30,0.00,,---,0.00,VWS V13.01,2013-01-29 23:37:00,
2013-01-29 16:43:00,50.9,19.8,27.26,WNW,286,15.0,18.8,29,0.00,,---,0.00,VWS V13.01,2013-01-29 23:43:00,
2013-01-29 16:48:00,50.7,19.6,27.26,WSW,257,7.6,11.0,29,0.00,,---,0.00,VWS V13.01,2013-01-29 23:48:00,
2013-01-29 16:53:00,50.5,19.5,27.26,WNW,295,6.3,17.0,29,0.00,,---,0.00,VWS V13.01,2013-01-29 23:53:00,
2013-01-29 16:58:00,50.4,19.3,27.26,WSW,251,15.0,17.9,29,0.00,,---,0.00,VWS V13.01,2013-01-29 23:58:00,
2013-01-29 17:03:00,50.2,19.2,27.26,WNW,291,7.6,13.2,29,0.00,,---,0.00,VWS V13.01,2013-01-30 00:03:00,
2013-01-29 17:08:00,50.0,19.0,27.26,WSW,256,8.1,15.0,29,0.00,,---,0.00,VWS V13.01,2013-01-30 00:08:00,
2013-01-29 17:14:00,49.8,19.6,27.26,NW,315,13.2,15.0,30,0.00,,---,0.00,VWS V13.01,2013-01-30 00:14:00,
2013-01-29 17:19:00,49.6,19.5,27.26,WNW,284,3.6,13.2,30,0.00,,---,0.00,VWS V13.01,2013-01-30 00:19:00,
2013-01-29 17:24:00,49.5,19.3,27.26,West,278,8.7,15.4,30,0.00,,---,0.00,VWS V13.01,2013-01-30 00:24:00,
2013-01-29 17:29:00,49.1,19.0,27.26,West,264,12.8,14.1,30,0.00,,---,0.00,VWS V13.01,2013-01-30 00:29:00,
2013-01-29 17:34:00,48.9,19.6,27.26,WSW,254,5.8,10.5,31,0.00,,---,0.00,VWS V13.01,2013-01-30 00:34:00,
2013-01-29 17:39:00,48.7,19.5,27.26,West,267,8.1,8.3,31,0.00,,---,0.00,VWS V13.01,2013-01-30 00:39:00,
2013-01-29 17:44:00,48.6,19.3,27.26,NNW,333,10.1,12.3,31,0.00,,---,0.00,VWS V13.01,2013-01-30 00:44:00,
2013-01-29 17:49:00,48.4,19.9,27.26,NW,312,5.4,11.0,32,0.00,,---,0.00,VWS V13.01,2013-01-30 00:49:00,
2013-01-29 17:55:00,48.2,19.7,27.29,West,279,6.3,8.1,32,0.00,,---,0.00,VWS V13.01,2013-01-30 00:55:00,
2013-01-29 18:00:00,48.2,19.7,27.29,NW,309,5.8,10.5,32,0.00,,---,0.00,VWS V13.01,2013-01-30 01:00:00,
2013-01-29 18:05:00,48.0,20.3,27.29,West,281,3.6,6.3,33,0.00,,---,0.00,VWS V13.01,2013-01-30 01:05:00,
2013-01-29 18:10:00,47.8,20.1,27.29,NW,306,6.7,6.7,33,0.00,,---,0.00,VWS V13.01,2013-01-30 01:10:00,
2013-01-29 18:15:00,47.7,20.7,27.29,WNW,300,0.0,8.1,34,0.00,,---,0.00,VWS V13.01,2013-01-30 01:15:00,
2013-01-29 18:20:00,47.5,20.5,27.29,WNW,292,0.0,5.4,34,0.00,,---,0.00,VWS V13.01,2013-01-30 01:20:00,
2013-01-29 18:26:00,47.3,20.4,27.29,WNW,295,3.1,3.6,34,0.00,,---,0.00,VWS V13.01,2013-01-30 01:26:00,
2013-01-29 18:31:00,47.3,21.0,27.29,WNW,287,0.0,4.0,35,0.00,,---,0.00,VWS V13.01,2013-01-30 01:31:00,
2013-01-29 18:36:00,47.1,21.6,27.29,WNW,292,0.0,2.7,36,0.00,,---,0.00,VWS V13.01,2013-01-30 01:36:00,
2013-01-29 18:42:00,46.9,21.4,27.29,WNW,290,3.1,5.4,36,0.00,,---,0.00,VWS V13.01,2013-01-30 01:42:00,
2013-01-29 18:47:00,46.8,21.2,27.29,WNW,285,3.6,5.8,36,0.00,,---,0.00,VWS V13.01,2013-01-30 01:47:00,
2013-01-29 18:52:00,46.8,21.9,27.29,WNW,299,2.7,8.3,37,0.00,,---,0.00,VWS V13.01,2013-01-30 01:52:00,
2013-01-29 18:57:00,46.6,21.7,27.29,NW,306,5.8,7.6,37,0.00,,---,0.00,VWS V13.01,2013-01-30 01:57:00,
2013-01-29 19:02:00,46.4,21.6,27.29,WNW,291,3.1,7.6,37,0.00,,---,0.00,VWS V13.01,2013-01-30 02:02:00,
2013-01-29 19:07:00,46.4,21.6,27.32,West,277,4.9,6.7,37,0.00,,---,0.00,VWS V13.01,2013-01-30 02:07:00,
2013-01-29 19:13:00,46.2,22.0,27.32,NW,305,0.0,0.0,38,0.00,,---,0.00,VWS V13.01,2013-01-30 02:13:00,
2013-01-29 19:18:00,46.0,21.9,27.32,WNW,297,0.0,3.6,38,0.00,,---,0.00,VWS V13.01,2013-01-30 02:18:00,
2013-01-29 19:23:00,45.9,21.7,27.32,WNW,299,0.0,0.0,38,0.00,,---,0.00,VWS V13.01,2013-01-30 02:23:00,
2013-01-29 19:29:00,45.7,21.5,27.32,WNW,299,0.0,0.0,38,0.00,,---,0.00,VWS V13.01,2013-01-30 02:29:00,
2013-01-29 19:34:00,45.5,21.4,27.32,WNW,299,0.0,0.0,38,0.00,,---,0.00,VWS V13.01,2013-01-30 02:34:00,
2013-01-29 19:39:00,45.1,21.7,27.32,WNW,299,0.0,0.0,39,0.00,,---,0.00,VWS V13.01,2013-01-30 02:39:00,
2013-01-29 19:44:00,44.6,21.2,27.32,WNW,299,0.0,0.0,39,0.00,,---,0.00,VWS V13.01,2013-01-30 02:44:00,
2013-01-29 19:50:00,44.2,21.5,27.32,WNW,299,0.0,0.0,40,0.00,,---,0.00,VWS V13.01,2013-01-30 02:50:00,
2013-01-29 19:55:00,43.9,21.7,27.32,WNW,299,0.0,0.0,41,0.00,,---,0.00,VWS V13.01,2013-01-30 02:55:00,
2013-01-29 20:00:00,43.5,21.4,27.32,WNW,299,0.0,0.0,41,0.00,,---,0.00,VWS V13.01,2013-01-30 03:00:00,
2013-01-29 20:06:00,43.5,22.0,27.32,WNW,299,0.0,0.0,42,0.00,,---,0.00,VWS V13.01,2013-01-30 03:06:00,
2013-01-29 20:11:00,43.3,21.8,27.32,WNW,299,0.0,0.0,42,0.00,,---,0.00,VWS V13.01,2013-01-30 03:11:00,
2013-01-29 20:16:00,43.2,21.6,27.32,WNW,299,0.0,0.0,42,0.00,,---,0.00,VWS V13.01,2013-01-30 03:16:00,
2013-01-29 20:21:00,43.0,21.5,27.34,WNW,299,0.0,0.0,42,0.00,,---,0.00,VWS V13.01,2013-01-30 03:21:00,
2013-01-29 20:26:00,42.8,21.9,27.34,WNW,293,0.0,0.0,43,0.00,,---,0.00,VWS V13.01,2013-01-30 03:26:00,
2013-01-29 20:31:00,43.0,22.0,27.34,WNW,293,0.0,0.0,43,0.00,,---,0.00,VWS V13.01,2013-01-30 03:31:00,
2013-01-29 20:37:00,43.2,21.6,27.34,WNW,293,0.0,0.0,42,0.00,,---,0.00,VWS V13.01,2013-01-30 03:37:00,
2013-01-29 20:42:00,43.3,21.8,27.34,WNW,286,0.0,3.6,42,0.00,,---,0.00,VWS V13.01,2013-01-30 03:42:00,
2013-01-29 20:47:00,43.3,21.8,27.34,WNW,286,0.0,0.0,42,0.00,,---,0.00,VWS V13.01,2013-01-30 03:47:00,
2013-01-29 20:52:00,43.3,21.8,27.34,WNW,285,0.0,0.0,42,0.00,,---,0.00,VWS V13.01,2013-01-30 03:52:00,
2013-01-29 20:57:00,43.3,21.8,27.34,WNW,283,3.1,3.1,42,0.00,,---,0.00,VWS V13.01,2013-01-30 03:57:00,
2013-01-29 21:02:00,43.3,21.8,27.34,WNW,282,0.0,0.0,42,0.00,,---,0.00,VWS V13.01,2013-01-30 04:02:00,
2013-01-29 21:08:00,43.3,21.8,27.34,WNW,292,4.9,4.9,42,0.00,,---,0.00,VWS V13.01,2013-01-30 04:08:00,
2013-01-29 21:13:00,43.3,21.8,27.34,WNW,288,6.3,6.3,42,0.00,,---,0.00,VWS V13.01,2013-01-30 04:13:00,
2013-01-29 21:18:00,43.5,22.0,27.34,West,267,3.6,4.9,42,0.00,,---,0.00,VWS V13.01,2013-01-30 04:18:00,
2013-01-29 21:23:00,43.3,21.8,27.34,WNW,285,3.6,4.0,42,0.00,,---,0.00,VWS V13.01,2013-01-30 04:23:00,
2013-01-29 21:29:00,43.3,21.8,27.34,WNW,289,4.9,4.9,42,0.00,,---,0.00,VWS V13.01,2013-01-30 04:29:00,
2013-01-29 21:34:00,43.3,21.8,27.34,WNW,292,0.0,5.8,42,0.00,,---,0.00,VWS V13.01,2013-01-30 04:34:00,
2013-01-29 21:39:00,43.2,21.6,27.34,NW,308,4.0,4.9,42,0.00,,---,0.00,VWS V13.01,2013-01-30 04:39:00,
2013-01-29 21:44:00,43.2,22.2,27.34,WNW,285,2.7,4.9,43,0.00,,---,0.00,VWS V13.01,2013-01-30 04:44:00,
2013-01-29 21:49:00,43.2,22.2,27.34,West,277,3.6,4.9,43,0.00,,---,0.00,VWS V13.01,2013-01-30 04:49:00,
2013-01-29 21:54:00,43.2,21.6,27.34,WNW,284,4.0,4.9,42,0.00,,---,0.00,VWS V13.01,2013-01-30 04:54:00,
2013-01-29 22:01:00,43.2,21.6,27.34,West,271,3.6,4.0,42,0.00,,---,0.00,VWS V13.01,2013-01-30 05:01:00,
2013-01-29 22:03:00,43.2,21.6,27.34,West,262,5.4,5.4,42,0.00,,---,0.00,VWS V13.01,2013-01-30 05:03:00,
2013-01-29 22:06:00,43.2,21.6,27.34,West,262,4.0,4.9,42,0.00,,---,0.00,VWS V13.01,2013-01-30 05:06:00,
2013-01-29 22:08:00,43.2,21.6,27.34,West,270,3.6,5.4,42,0.00,,---,0.00,VWS V13.01,2013-01-30 05:08:00,
2013-01-29 22:14:00,43.0,21.5,27.34,WSW,247,5.4,5.4,42,0.00,,---,0.00,VWS V13.01,2013-01-30 05:14:00,
2013-01-29 22:19:00,43.0,21.5,27.34,WSW,250,4.9,4.9,42,0.00,,---,0.00,VWS V13.01,2013-01-30 05:19:00,
2013-01-29 22:24:00,42.8,21.9,27.34,WSW,249,4.0,5.8,43,0.00,,---,0.00,VWS V13.01,2013-01-30 05:24:00,
2013-01-29 22:30:00,42.8,21.9,27.34,WSW,249,4.9,6.3,43,0.00,,---,0.00,VWS V13.01,2013-01-30 05:30:00,
2013-01-29 22:35:00,42.8,21.9,27.34,West,260,3.6,4.9,43,0.00,,---,0.00,VWS V13.01,2013-01-30 05:35:00,
2013-01-29 22:40:00,42.8,21.9,27.34,WSW,255,4.0,4.9,43,0.00,,---,0.00,VWS V13.01,2013-01-30 05:40:00,
2013-01-29 22:46:00,42.8,21.9,27.34,West,266,4.0,5.4,43,0.00,,---,0.00,VWS V13.01,2013-01-30 05:46:00,
2013-01-29 22:51:00,42.8,21.9,27.37,WSW,256,5.8,5.8,43,0.00,,---,0.00,VWS V13.01,2013-01-30 05:51:00,
2013-01-29 22:56:00,42.6,21.7,27.37,WSW,254,3.6,5.4,43,0.00,,---,0.00,VWS V13.01,2013-01-30 05:56:00,
2013-01-29 23:01:00,42.3,21.9,27.37,WSW,245,0.0,4.9,44,0.00,,---,0.00,VWS V13.01,2013-01-30 06:01:00,
2013-01-29 23:06:00,41.9,21.6,27.37,SW,225,3.6,4.9,44,0.00,,---,0.00,VWS V13.01,2013-01-30 06:06:00,
2013-01-29 23:11:00,41.7,21.4,27.37,WSW,247,4.0,5.8,44,0.00,,---,0.00,VWS V13.01,2013-01-30 06:11:00,
2013-01-29 23:17:00,41.9,21.6,27.37,WSW,253,5.4,5.8,44,0.00,,---,0.00,VWS V13.01,2013-01-30 06:17:00,
2013-01-29 23:22:00,41.9,21.6,27.37,WSW,253,5.4,5.4,44,0.00,,---,0.00,VWS V13.01,2013-01-30 06:22:00,
2013-01-29 23:27:00,41.9,21.6,27.37,WSW,253,3.6,4.0,44,0.00,,---,0.00,VWS V13.01,2013-01-30 06:27:00,
2013-01-29 23:33:00,41.9,21.6,27.37,WSW,253,0.0,3.1,44,0.00,,---,0.00,VWS V13.01,2013-01-30 06:33:00,
2013-01-29 23:38:00,41.5,21.8,27.37,WSW,253,0.0,0.0,45,0.00,,---,0.00,VWS V13.01,2013-01-30 06:38:00,
2013-01-29 23:43:00,40.8,21.7,27.37,WSW,253,0.0,0.0,46,0.00,,---,0.00,VWS V13.01,2013-01-30 06:43:00,
2013-01-29 23:49:00,40.5,21.8,27.37,WSW,253,0.0,0.0,47,0.00,,---,0.00,VWS V13.01,2013-01-30 06:49:00,
2013-01-29 23:54:00,40.1,22.0,27.37,WSW,253,0.0,0.0,48,0.00,,---,0.00,VWS V13.01,2013-01-30 06:54:00,
2013-01-29 23:59:00,39.7,22.2,27.37,WSW,253,0.0,0.0,49,0.00,,---,0.00,VWS V13.01,2013-01-30 06:59:00,